| time (UTC) | temp C | wind direction | speed KPH | gust KPH | rain 1hr cm | rain 24hr cm | rain mn cm | humidity % | barometer mb |
| 20260503195526 | 31 | 311 | 1.6 | 14.5 | 0.00 | 0.00 | 0.00 | 1011.7 | |
| 20260503195026 | 30 | 120 | 3.2 | 19.3 | 0.00 | 0.00 | 0.00 | 1011.8 | |
| 20260503194545 | 30 | 305 | 3.2 | 19.3 | 0.00 | 0.00 | 0.00 | 1011.9 | |
| 20260503194026 | 29 | 101 | 6.4 | 24.1 | 0.00 | 0.00 | 0.00 | 1011.9 | |
| 20260503193526 | 30 | 129 | 9.7 | 24.1 | 0.00 | 0.00 | 0.00 | 1011.9 | |
| 20260503193047 | 30 | 0 | 6.4 | 27.4 | 0.00 | 0.00 | 0.00 | 1012.1 | |
| 20260503192525 | 30 | 122 | 6.4 | 27.4 | 0.00 | 0.00 | 0.00 | 1012.1 | |
| 20260503192029 | 29 | 77 | 12.9 | 27.4 | 0.00 | 0.00 | 0.00 | 1012.2 | |
| 20260503191539 | 30 | 80 | 3.2 | 20.9 | 0.00 | 0.00 | 0.00 | 1012.3 | |
| 20260503191026 | 30 | 106 | 6.4 | 20.9 | 0.00 | 0.00 | 0.00 | 1012.3 | |
| 20260503190525 | 28 | 31 | 4.8 | 24.1 | 0.00 | 0.00 | 0.00 | 1012.4 | |
| 20260503190045 | 29 | 105 | 6.4 | 24.1 | 0.00 | 0.00 | 0.00 | 1012.4 | |
| 20260503185525 | 29 | 41 | 9.7 | 25.7 | 0.00 | 0.00 | 0.00 | 1012.4 | |
| 20260503185029 | 28 | 49 | 14.5 | 25.7 | 0.00 | 0.00 | 0.00 | 1012.5 | |
| 20260503184542 | 29 | 302 | 8.0 | 22.5 | 0.00 | 0.00 | 0.00 | 1012.5 | |
| 20260503184026 | 29 | 0 | 3.2 | 24.1 | 0.00 | 0.00 | 0.00 | 1012.7 | |
| 20260503183527 | 27 | 344 | 11.3 | 32.2 | 0.00 | 0.00 | 0.00 | 1012.7 | |
| 20260503183052 | 28 | 110 | 3.2 | 32.2 | 0.00 | 0.00 | 0.00 | 1012.7 | |
| 20260503182526 | 27 | 110 | 11.3 | 27.4 | 0.00 | 0.00 | 0.00 | 1012.7 | |
| 20260503182025 | 27 | 285 | 17.7 | 25.7 | 0.00 | 0.00 | 0.00 | 1012.7 | |
| 20260503181557 | 27 | 128 | 11.3 | 22.5 | 0.00 | 0.00 | 0.00 | 1012.8 | |
| 20260503181026 | 27 | 137 | 12.9 | 24.1 | 0.00 | 0.00 | 0.00 | 1012.8 | |
| 20260503180530 | 26 | 110 | 11.3 | 30.6 | 0.00 | 0.00 | 0.00 | 1012.9 | |
| 20260503180047 | 26 | 103 | 16.1 | 30.6 | 0.00 | 0.00 | 0.00 | 1012.8 | |
| 20260503175529 | 26 | 121 | 14.5 | 35.4 | 0.00 | 0.00 | 0.00 | 1012.8 | |
| 20260503175031 | 25 | 80 | 19.3 | 35.4 | 0.00 | 0.00 | 0.00 | 1013.0 | |
| 20260503174538 | 25 | 114 | 16.1 | 37.0 | 0.00 | 0.00 | 0.00 | 1012.9 | |
| 20260503174030 | 24 | 146 | 19.3 | 37.0 | 0.00 | 0.00 | 0.00 | 1013.0 | |
| 20260503173526 | 23 | 113 | 19.3 | 37.0 | 0.00 | 0.00 | 0.00 | 1013.1 | |
| 20260503173045 | 23 | 108 | 17.7 | 43.5 | 0.00 | 0.00 | 0.00 | 1013.0 | |
| 20260503172526 | 22 | 114 | 24.1 | 43.5 | 0.00 | 0.00 | 0.00 | 1013.1 | |
| 20260503172026 | 22 | 101 | 17.7 | 43.5 | 0.00 | 0.00 | 0.00 | 1013.2 | |
| 20260503171543 | 22 | 80 | 19.3 | 43.5 | 0.00 | 0.00 | 0.00 | 1013.0 | |
| 20260503171025 | 22 | 105 | 22.5 | 38.6 | 0.00 | 0.00 | 0.00 | 1013.1 | |
| 20260503170527 | 22 | 109 | 17.7 | 37.0 | 0.00 | 0.00 | 0.00 | 1013.1 | |
| 20260503150525 | 15 | 121 | 37.0 | 46.7 | 0.00 | 0.00 | 0.00 | 1013.3 | |
| 20260503131025 | 13 | 105 | 29.0 | 40.2 | 0.00 | 0.00 | 0.00 | 1013.1 | |
| 20260503130529 | 14 | 113 | 30.6 | 41.8 | 0.00 | 0.00 | 0.00 | 1013.1 | |
| 20260503110526 | 14 | 120 | 24.1 | 37.0 | 0.00 | 0.00 | 0.00 | 1013.3 | |
| 20260503081536 | 16 | 99 | 14.5 | 25.7 | 0.00 | 0.00 | 0.00 | 1013.8 | |
| 20260503081027 | 16 | 69 | 12.9 | 25.7 | 0.00 | 0.00 | 0.00 | 1013.8 | |
| 20260503080524 | 16 | 112 | 16.1 | 22.5 | 0.00 | 0.00 | 0.00 | 1013.8 | |
| 20260503072524 | 16 | 22 | 4.8 | 22.5 | 0.00 | 0.00 | 0.00 | 1013.8 | |
| 20260503072027 | 16 | 113 | 9.7 | 19.3 | 0.00 | 0.00 | 0.00 | 1013.9 | |
| 20260503071537 | 16 | 103 | 8.0 | 19.3 | 0.00 | 0.00 | 0.00 | 1013.9 | |
| 20260503071027 | 16 | 103 | 9.7 | 19.3 | 0.00 | 0.00 | 0.00 | 1013.9 | |
| 20260503070530 | 16 | 116 | 1.6 | 12.9 | 0.00 | 0.00 | 0.00 | 1013.9 | |
| 20260503055027 | 17 | 108 | 16.1 | 27.4 | 0.00 | 0.00 | 0.00 | 1013.9 | |
| 20260503054539 | 17 | 109 | 19.3 | 29.0 | 0.00 | 0.00 | 0.00 | 1013.7 | |
| 20260503054027 | 16 | 109 | 17.7 | 29.0 | 0.00 | 0.00 | 0.00 | 1013.7 | |
| 20260503053527 | 17 | 107 | 12.9 | 29.0 | 0.00 | 0.00 | 0.00 | 1013.5 | |
| 20260503053037 | 17 | 124 | 24.1 | 29.0 | 0.00 | 0.00 | 0.00 | 1013.5 | |
| 20260503052526 | 17 | 111 | 17.7 | 24.1 | 0.00 | 0.00 | 0.00 | 1013.7 | |
| 20260503052028 | 17 | 71 | 6.4 | 14.5 | 0.00 | 0.00 | 0.00 | 1013.6 | |
| 20260503051537 | 18 | 72 | 4.8 | 14.5 | 0.00 | 0.00 | 0.00 | 1013.7 | |
| 20260503051027 | 18 | 108 | 8.0 | 14.5 | 0.00 | 0.00 | 0.00 | 1013.9 | |
| 20260503050527 | 17 | 111 | 8.0 | 14.5 | 0.00 | 0.00 | 0.00 | 1014.1 | |
| 20260503050038 | 17 | 105 | 8.0 | 14.5 | 0.00 | 0.00 | 0.00 | 1014.0 | |
| 20260503045528 | 17 | 108 | 4.8 | 11.3 | 0.00 | 0.00 | 0.00 | 1014.1 | |
| 20260503045027 | 17 | 122 | 3.2 | 12.9 | 0.00 | 0.00 | 0.00 | 1014.1 | |
| 20260503044552 | 17 | 60 | 8.0 | 12.9 | 0.00 | 0.00 | 0.00 | 1014.2 | |
| 20260503044027 | 17 | 113 | 4.8 | 11.3 | 0.00 | 0.00 | 0.00 | 1014.2 | |
| 20260503043527 | 17 | 133 | 6.4 | 11.3 | 0.00 | 0.00 | 0.00 | 1014.0 | |
| 20260503043036 | 17 | 136 | 1.6 | 12.9 | 0.00 | 0.00 | 0.00 | 1014.2 | |
| 20260503042526 | 17 | 141 | 4.8 | 12.9 | 0.00 | 0.00 | 0.00 | 1014.3 | |
| 20260503042025 | 17 | 129 | 4.8 | 11.3 | 0.00 | 0.00 | 0.00 | 1014.3 | |
| 20260503041537 | 17 | 0 | 1.6 | 4.8 | 0.00 | 0.00 | 0.00 | 1014.2 | |
| 20260503041024 | 17 | 124 | 1.6 | 8.0 | 0.00 | 0.00 | 0.00 | 1014.2 | |
| 20260503040525 | 17 | 183 | 1.6 | 8.0 | 0.00 | 0.00 | 0.00 | 1014.2 | |
| 20260503040050 | 17 | 223 | 3.2 | 8.0 | 0.00 | 0.00 | 0.00 | 1014.2 | |
| 20260503035525 | 17 | 285 | 3.2 | 8.0 | 0.00 | 0.00 | 0.00 | 1014.1 | |
| 20260503035025 | 17 | 261 | 4.8 | 8.0 | 0.00 | 0.00 | 0.00 | 1014.0 | |
| 20260503034539 | 18 | 268 | 0.0 | 8.0 | 0.00 | 0.00 | 0.00 | 1014.0 | |
| 20260503034028 | 17 | 285 | 0.0 | 8.0 | 0.00 | 0.00 | 0.00 | 1014.2 | |
| 20260503033526 | 18 | 218 | 1.6 | 12.9 | 0.00 | 0.00 | 0.00 | 1014.1 | |
| 20260503033042 | 18 | 255 | 1.6 | 14.5 | 0.00 | 0.00 | 0.00 | 1014.1 | |
| 20260503032525 | 18 | 134 | 4.8 | 17.7 | 0.00 | 0.00 | 0.00 | 1014.2 | |
| 20260503032025 | 18 | 234 | 8.0 | 17.7 | 0.00 | 0.00 | 0.00 | 1014.0 | |
| 20260503031536 | 18 | 248 | 8.0 | 17.7 | 0.00 | 0.00 | 0.00 | 1013.9 | |
| 20260503031025 | 18 | 231 | 8.0 | 24.1 | 0.00 | 0.00 | 0.00 | 1013.9 | |
| 20260503030525 | 18 | 183 | 11.3 | 24.1 | 0.00 | 0.00 | 0.00 | 1013.7 | |
| 20260503030040 | 18 | 261 | 8.0 | 24.1 | 0.00 | 0.00 | 0.00 | 1013.7 | |
| 20260503025525 | 18 | 243 | 12.9 | 24.1 | 0.00 | 0.00 | 0.00 | 1013.8 | |
| 20260503025025 | 18 | 239 | 9.7 | 27.4 | 0.00 | 0.00 | 0.00 | 1013.5 | |
| 20260503024540 | 18 | 245 | 11.3 | 27.4 | 0.00 | 0.00 | 0.00 | 1013.5 | |
| 20260503024025 | 18 | 275 | 14.5 | 27.4 | 0.00 | 0.00 | 0.00 | 1013.6 | |
| 20260503023528 | 18 | 248 | 14.5 | 27.4 | 0.00 | 0.00 | 0.00 | 1013.2 | |
| 20260503023036 | 18 | 259 | 11.3 | 29.0 | 0.00 | 0.00 | 0.00 | 1013.5 | |
| 20260503022527 | 19 | 290 | 14.5 | 29.0 | 0.00 | 0.00 | 0.00 | 1013.5 | |
| 20260503022028 | 19 | 274 | 14.5 | 25.7 | 0.00 | 0.00 | 0.00 | 1013.4 | |
| 20260503021538 | 19 | 274 | 12.9 | 19.3 | 0.00 | 0.00 | 0.00 | 1013.2 | |
| 20260503021025 | 19 | 279 | 11.3 | 19.3 | 0.00 | 0.00 | 0.00 | 1013.1 | |
| 20260503020527 | 19 | 268 | 9.7 | 19.3 | 0.00 | 0.00 | 0.00 | 1013.0 | |
| 20260503020036 | 19 | 265 | 9.7 | 19.3 | 0.00 | 0.00 | 0.00 | 1013.0 | |
| 20260503015528 | 19 | 252 | 9.7 | 17.7 | 0.00 | 0.00 | 0.00 | 1012.8 | |
| 20260503015025 | 19 | 257 | 9.7 | 16.1 | 0.00 | 0.00 | 0.00 | 1012.8 | |
| 20260503014548 | 19 | 248 | 9.7 | 16.1 | 0.00 | 0.00 | 0.00 | 1012.8 | |
| 20260503014025 | 19 | 241 | 4.8 | 16.1 | 0.00 | 0.00 | 0.00 | 1012.8 | |
| 20260503013528 | 19 | 282 | 8.0 | 16.1 | 0.00 | 0.00 | 0.00 | 1012.7 | |
| 20260503013038 | 19 | 284 | 8.0 | 16.1 | 0.00 | 0.00 | 0.00 | 1012.6 | |
| 20260503012525 | 20 | 141 | 3.2 | 11.3 | 0.00 | 0.00 | 0.00 | 1012.8 | |
| 20260503012026 | 20 | 283 | 6.4 | 11.3 | 0.00 | 0.00 | 0.00 | 1012.8 | |
| 20260503011537 | 20 | 268 | 4.8 | 11.3 | 0.00 | 0.00 | 0.00 | 1012.8 | |
| 20260503011025 | 20 | 291 | 4.8 | 11.3 | 0.00 | 0.00 | 0.00 | 1012.7 | |
| 20260503010526 | 20 | 268 | 3.2 | 8.0 | 0.00 | 0.00 | 0.00 | 1012.7 | |
| 20260503010037 | 20 | 286 | 1.6 | 9.7 | 0.00 | 0.00 | 0.00 | 1012.8 | |
| 20260503005527 | 21 | 286 | 1.6 | 9.7 | 0.00 | 0.00 | 0.00 | 1012.8 | |
| 20260503005028 | 21 | 286 | 4.8 | 9.7 | 0.00 | 0.00 | 0.00 | 1012.9 | |
| 20260503004536 | 22 | 99 | 1.6 | 8.0 | 0.00 | 0.00 | 0.00 | 1012.9 | |
| 20260503004030 | 23 | 285 | 0.0 | 4.8 | 0.00 | 0.00 | 0.00 | 1012.9 | |
| 20260503003526 | 24 | 158 | 0.0 | 4.8 | 0.00 | 0.00 | 0.00 | 1013.0 | |
| 20260503003044 | 23 | 0 | 0.0 | 4.8 | 0.00 | 0.00 | 0.00 | 1012.8 | |
| 20260503002530 | 23 | 0 | 0.0 | 4.8 | 0.00 | 0.00 | 0.00 | 1012.9 | |
| 20260503002029 | 22 | 239 | 0.0 | 4.8 | 0.00 | 0.00 | 0.00 | 1012.9 | |
| 20260503001543 | 22 | 0 | 0.0 | 4.8 | 0.00 | 0.00 | 0.00 | 1012.8 | |
| 20260503001025 | 22 | 277 | 0.0 | 3.2 | 0.00 | 0.00 | 0.00 | 1012.8 | |
| 20260503000525 | 22 | 280 | 0.0 | 6.4 | 0.00 | 0.00 | 0.00 | 1012.9 | |
| 20260503000040 | 22 | 0 | 1.6 | 6.4 | 0.00 | 0.00 | 0.00 | 1013.0 | |
| 20260502235525 | 22 | 311 | 1.6 | 6.4 | 0.00 | 0.00 | 0.00 | 1013.1 | |
| 20260502235025 | 23 | 268 | 1.6 | 6.4 | 0.00 | 0.00 | 0.00 | 1012.9 | |
| 20260502234546 | 24 | 311 | 1.6 | 4.8 | 0.00 | 0.00 | 0.00 | 1012.9 | |
| 20260502234027 | 24 | 268 | 1.6 | 8.0 | 0.00 | 0.00 | 0.00 | 1012.9 | |
| 20260502233530 | 25 | 243 | 1.6 | 8.0 | 0.00 | 0.00 | 0.00 | 1013.0 | |
| 20260502233037 | 26 | 280 | 0.0 | 8.0 | 0.00 | 0.00 | 0.00 | 1013.1 | |
| 20260502232528 | 25 | 12 | 1.6 | 9.7 | 0.00 | 0.00 | 0.00 | 1013.2 | |
| 20260502232026 | 25 | 278 | 3.2 | 9.7 | 0.00 | 0.00 | 0.00 | 1013.2 | |
| 20260502231541 | 25 | 302 | 1.6 | 8.0 | 0.00 | 0.00 | 0.00 | 1013.3 | |
| 20260502231030 | 25 | 39 | 1.6 | 12.9 | 0.00 | 0.00 | 0.00 | 1013.4 | |
| 20260502230526 | 25 | 252 | 3.2 | 14.5 | 0.00 | 0.00 | 0.00 | 1013.4 | |
| 20260502230046 | 26 | 297 | 4.8 | 14.5 | 0.00 | 0.00 | 0.00 | 1013.4 | |
| 20260502225527 | 28 | 285 | 1.6 | 9.7 | 0.00 | 0.00 | 0.00 | 1013.6 | |
| 20260502225027 | 27 | 22 | 3.2 | 9.7 | 0.00 | 0.00 | 0.00 | 1013.4 | |
| 20260502224539 | 28 | 141 | 1.6 | 8.0 | 0.00 | 0.00 | 0.00 | 1013.7 | |
| 20260502224026 | 27 | 286 | 1.6 | 9.7 | 0.00 | 0.00 | 0.00 | 1013.7 | |
| 20260502223526 | 25 | 286 | 1.6 | 9.7 | 0.00 | 0.00 | 0.00 | 1013.8 | |
| 20260502223040 | 27 | 31 | 1.6 | 6.4 | 0.00 | 0.00 | 0.00 | 1013.9 | |
| 20260502222526 | 27 | 109 | 1.6 | 6.4 | 0.00 | 0.00 | 0.00 | 1014.0 | |
| 20260502222028 | 26 | 51 | 1.6 | 6.4 | 0.00 | 0.00 | 0.00 | 1014.1 | |
| 20260502221540 | 26 | 192 | 1.6 | 8.0 | 0.00 | 0.00 | 0.00 | 1014.2 | |
| 20260502221026 | 25 | 109 | 1.6 | 8.0 | 0.00 | 0.00 | 0.00 | 1014.2 | |
| 20260502220526 | 23 | 283 | 3.2 | 9.7 | 0.00 | 0.00 | 0.00 | 1014.2 | |
| 20260502220113 | 24 | 39 | 1.6 | 11.3 | 0.00 | 0.00 | 0.00 | 1014.3 | |
| 20260502215525 | 25 | 0 | 1.6 | 11.3 | 0.00 | 0.00 | 0.00 | 1014.5 | |
| 20260502215028 | 24 | 311 | 4.8 | 11.3 | 0.00 | 0.00 | 0.00 | 1014.4 | |
| 20260502214541 | 25 | 7 | 3.2 | 9.7 | 0.00 | 0.00 | 0.00 | 1014.5 | |
| 20260502214026 | 26 | 22 | 1.6 | 8.0 | 0.00 | 0.00 | 0.00 | 1014.6 | |
| 20260502213526 | 24 | 124 | 1.6 | 8.0 | 0.00 | 0.00 | 0.00 | 1014.6 | |
| 20260502213039 | 22 | 254 | 1.6 | 8.0 | 0.00 | 0.00 | 0.00 | 1014.6 | |
| 20260502212528 | 22 | 131 | 1.6 | 6.4 | 0.00 | 0.00 | 0.00 | 1014.8 | |
| 20260502212027 | 23 | 268 | 1.6 | 6.4 | 0.00 | 0.00 | 0.00 | 1014.9 | |
| 20260502211540 | 23 | 112 | 1.6 | 6.4 | 0.00 | 0.00 | 0.00 | 1014.9 | |
| 20260502211027 | 23 | 268 | 1.6 | 8.0 | 0.00 | 0.00 | 0.00 | 1015.1 | |
| 20260502210526 | 22 | 0 | 1.6 | 8.0 | 0.00 | 0.00 | 0.00 | 1015.3 | |
| 20260502210041 | 22 | 286 | 1.6 | 8.0 | 0.00 | 0.00 | 0.00 | 1015.2 | |
| 20260502205526 | 22 | 219 | 1.6 | 9.7 | 0.00 | 0.00 | 0.00 | 1015.2 | |
| 20260502205028 | 22 | 133 | 1.6 | 9.7 | 0.00 | 0.00 | 0.00 | 1015.4 | |
| 20260502204537 | 21 | 261 | 1.6 | 9.7 | 0.00 | 0.00 | 0.00 | 1015.4 | |
| 20260502204027 | 21 | 231 | 1.6 | 8.0 | 0.00 | 0.00 | 0.00 | 1015.4 | |
| 20260502203526 | 20 | 0 | 1.6 | 8.0 | 0.00 | 0.00 | 0.00 | 1015.5 | |
| 20260502203044 | 19 | 183 | 1.6 | 8.0 | 0.00 | 0.00 | 0.00 | 1015.4 | |
| 20260502202526 | 20 | 5 | 1.6 | 8.0 | 0.00 | 0.00 | 0.00 | 1015.6 | |
| 20260502202026 | 21 | 99 | 1.6 | 8.0 | 0.00 | 0.00 | 0.00 | 1015.5 | |
| 20260502201541 | 22 | 216 | 1.6 | 8.0 | 0.00 | 0.00 | 0.00 | 1015.7 | |
| 20260502201026 | 22 | 64 | 1.6 | 6.4 | 0.00 | 0.00 | 0.00 | 1015.7 | |
| 20260502200527 | 21 | 0 | 1.6 | 6.4 | 0.00 | 0.00 | 0.00 | 1015.8 | |
| 20260502200036 | 21 | 216 | 1.6 | 9.7 | 0.00 | 0.00 | 0.00 | 1015.8 |